Location: Baia Mare
(47.6567°N, 23.5850°E)
Time: 13:14:42
(UTC+03:00)

ISS - Pass Details

Date: 30 May 2018
Orbit: 403 x 408 km, 51.6° (Epoch: 21 September)

Event Time Altitude Azimuth Distance (km) Brightness Sun altitude
Rises 21:38:53 0° 279° (W) 2,330 1.2 -4.2°
Reaches altitude 10° 21:41:03 10° 287° (WNW) 1,468 0.3 -4.5°
Maximum altitude 21:44:10 39° 358° (N) 626 -2.4 -4.9°
Drops below altitude 10° 21:47:17 10° 70° (ENE) 1,463 -1.3 -5.3°
Enters shadow 21:50:21 -3° 80° (E) 2,687 0.0 -5.7°
